SCOUT A R/B, 2755

Orbit data source: Space-Track

SCOUT A R/B, 2755 is space debris in LEO originally from a launch on Fri, 14 Apr 1967 UTC launched from the Air Force Western Test Range (AFWTR). Debris objects in space refer to the collection of defunct objects orbiting the Earth. Examples of debris include non-operational satellites, rocket bodies, and fragments generated from explosions, collisions, or faulty payload assembly.

Loading next visibility...
Identifier
2755, 1967-034B
Orbit
LEO
Last TLE update
14 hours ago
Origin
Manufacturer
ABL
Mission
Spacecraft
Bus & Motor
ALTAIR, Unknown motor
Mass
33 kg wet, 33 kg dry
Launch date (UTC)
1967-04-14 (58 years ago)
Launch vehicle
Unknown
Launch site
Air Force Western Test Range (AFWTR)
Object type
Payload
Rocket body
Debris
Shape & HBR
Cyl, 1.5 m
Radar Cross Section
0.687 m², Medium (>0.1 m² and < 1m²)

Expand to show TLE details & history

TLE from 14 hours ago
0 SCOUT A R/B
1 02755U 67034B   25128.70123806  .00000139  00000-0  19147-3 0  9992
2 02755  90.2610  45.2807 0027794  89.2546 333.0192 13.53970317867302
Epoch: 2025-05-08T16:49Z
Definitive object data (Epoch: 2025-05-08T16:49:46.968Z)
Latitude
62.21489°
Longitude
-74.42576°
Altitude
1,050.028 km
Speed
7.342 km/s
True Right ascension
02h 59m 09s
True Declination
62° 04' 42"
Sunlit
Object was in daylight at TLE epoch
Visualization TLE readout
Latitude
-68.75365°
Longitude
-73.25014°
Altitude
1,102.515 km
Speed
7.291 km/s
Apparent Right ascension
02h 42m 54s
Apparent Declination
-55° 24' 49"
Sunlit
Object is in daylight
Visualization observer readout
Local Sidereal Time
14:31:17
Azimuth
186.129° SSW
Elevation
-74.383°
Doppler factor
1
Orbital elements
Apogee altitude
1,075.39 km
Perigee altitude
1,034.072 km
Semi-major axis
7,432.868 km
Eccentricity
0.0027794
Inclination
90.261°
RAAN
45.2807°
Arg. of periapsis
89.2546°
True anomaly
332.87425°
Mean anomaly
333.0192°
Eccentric anomaly
332.94677°
Mean motion
3.38695 °/min
BSTAR
0.00019147
Orbital period
106.29 mins
Loading maneuver chart data...
Loading SW <> Apogee altitude chart data...
Loading historical data...
Loading historical data...
Loading historical data...
Loading historical data...
Loading historical data...
Loading historical data...
Loading historical data...

SCOUT A R/B Visibility forecast

Observer location: undefined°, undefined°

Span
Click to sort rows by Start time (UTC) header in descending order
Start Az.
Max El. time (UTC)
Max El. Az.
Max El.
End time (UTC)
End Az.
11 mins2025-05-09 07:18:28.431Z350.386° N2025-05-09 07:23:28.431Z291.224° WNW38.256°2025-05-09 07:29:28.431Z205.825° SW
8 mins2025-05-09 17:30:28.431Z112.641° SE2025-05-09 17:33:28.431Z78.619° E21.731°2025-05-09 17:38:28.431Z25.761° NE
11 mins2025-05-09 19:14:28.431Z198.798° SSW2025-05-09 19:19:28.431Z271.419° WNW38.781°2025-05-09 19:25:28.431Z347.171° N
|